Time,TemperatureF,DewpointF,PressureIn,WindDirection,WindDirectionDegrees,WindSpeedMPH,WindSpeedGustMPH,Humidity,HourlyPrecipIn,Conditions,Clouds,dailyrainin,SoftwareType,DateUTC
2013-01-21 00:13:00,24.7,10.0,29.83,WNW,282,12.0,23.0,54,0.00,,,0.00,weatherlink.com 1.10,2013-01-21 05:13:00,
2013-01-21 00:28:00,23.5,9.0,29.84,NW,326,12.0,19.0,53,0.00,,,0.00,weatherlink.com 1.10,2013-01-21 05:28:00,
2013-01-21 00:43:00,23.0,7.0,29.85,NW,321,13.0,20.0,51,0.00,,,0.00,weatherlink.com 1.10,2013-01-21 05:43:00,
2013-01-21 00:58:00,22.5,7.0,29.86,NNW,337,11.0,19.0,52,0.00,,,0.00,weatherlink.com 1.10,2013-01-21 05:58:00,
2013-01-21 01:13:00,21.9,8.0,29.86,NW,311,11.0,19.0,55,0.00,,,0.00,weatherlink.com 1.10,2013-01-21 06:13:00,
2013-01-21 01:29:00,21.5,7.0,29.88,NW,322,18.0,20.0,54,0.00,,,0.00,weatherlink.com 1.10,2013-01-21 06:29:00,
2013-01-21 01:44:00,21.1,6.0,29.88,WNW,303,13.0,21.0,52,0.00,,,0.00,weatherlink.com 1.10,2013-01-21 06:44:00,
2013-01-21 01:59:00,20.6,6.0,29.89,NW,313,15.0,24.0,53,0.00,,,0.00,weatherlink.com 1.10,2013-01-21 06:59:00,
2013-01-21 02:14:00,20.3,5.0,29.89,NW,318,11.0,23.0,52,0.00,,,0.00,weatherlink.com 1.10,2013-01-21 07:14:00,
2013-01-21 02:29:00,19.9,5.0,29.90,NW,322,9.0,24.0,53,0.00,,,0.00,weatherlink.com 1.10,2013-01-21 07:29:00,
2013-01-21 02:44:00,19.5,4.0,29.91,NW,323,23.0,24.0,52,0.00,,,0.00,weatherlink.com 1.10,2013-01-21 07:44:00,
2013-01-21 02:59:00,19.4,5.0,29.91,NW,311,12.0,21.0,53,0.00,,,0.00,weatherlink.com 1.10,2013-01-21 07:59:00,
2013-01-21 03:14:00,19.0,4.0,29.92,NW,323,14.0,27.0,51,0.00,,,0.00,weatherlink.com 1.10,2013-01-21 08:14:00,
2013-01-21 03:29:00,18.9,4.0,29.92,NW,322,19.0,23.0,52,0.00,,,0.00,weatherlink.com 1.10,2013-01-21 08:29:00,
2013-01-21 03:44:00,18.7,3.0,29.93,NW,309,14.0,24.0,50,0.00,,,0.00,weatherlink.com 1.10,2013-01-21 08:44:00,
2013-01-21 03:59:00,18.6,2.0,29.93,WNW,300,15.0,28.0,49,0.00,,,0.00,weatherlink.com 1.10,2013-01-21 08:59:00,
2013-01-21 04:14:00,18.2,1.0,29.94,WNW,291,14.0,26.0,48,0.00,,,0.00,weatherlink.com 1.10,2013-01-21 09:14:00,
2013-01-21 04:29:00,17.8,1.0,29.94,NNW,327,16.0,28.0,48,0.00,,,0.00,weatherlink.com 1.10,2013-01-21 09:29:00,
2013-01-21 04:44:00,17.4,2.0,29.95,NW,314,15.0,26.0,50,0.00,,,0.00,weatherlink.com 1.10,2013-01-21 09:44:00,
2013-01-21 04:59:00,17.4,1.0,29.95,WNW,302,14.0,30.0,49,0.00,,,0.00,weatherlink.com 1.10,2013-01-21 09:59:00,
2013-01-21 05:14:00,17.0,1.0,29.97,NW,312,15.0,24.0,50,0.00,,,0.00,weatherlink.com 1.10,2013-01-21 10:14:00,
2013-01-21 05:29:00,16.8,1.0,29.98,WNW,298,7.0,22.0,51,0.00,,,0.00,weatherlink.com 1.10,2013-01-21 10:29:00,
2013-01-21 05:44:00,16.5,1.0,29.98,West,280,12.0,21.0,51,0.00,,,0.00,weatherlink.com 1.10,2013-01-21 10:44:00,
2013-01-21 05:59:00,16.3,1.0,29.98,West,281,12.0,27.0,50,0.00,,,0.00,weatherlink.com 1.10,2013-01-21 10:59:00,
2013-01-21 06:14:00,16.1,0.0,29.99,West,269,14.0,27.0,49,0.00,,,0.00,weatherlink.com 1.10,2013-01-21 11:14:00,
2013-01-21 06:29:00,15.9,0.0,29.99,West,280,14.0,28.0,49,0.00,,,0.00,weatherlink.com 1.10,2013-01-21 11:29:00,
2013-01-21 06:44:00,15.5,0.0,30.00,WNW,286,7.0,23.0,51,0.00,,,0.00,weatherlink.com 1.10,2013-01-21 11:44:00,
2013-01-21 07:00:00,15.3,0.0,30.00,West,279,10.0,21.0,52,0.00,,,0.00,weatherlink.com 1.10,2013-01-21 12:00:00,
2013-01-21 07:15:00,15.0,0.0,30.01,WNW,290,10.0,22.0,52,0.00,,,0.00,weatherlink.com 1.10,2013-01-21 12:15:00,
2013-01-21 07:30:00,15.0,0.0,30.02,WNW,290,7.0,20.0,51,0.00,,,0.00,weatherlink.com 1.10,2013-01-21 12:30:00,
2013-01-21 07:45:00,15.1,0.0,30.02,WNW,299,9.0,15.0,52,0.00,,,0.00,weatherlink.com 1.10,2013-01-21 12:45:00,
2013-01-21 08:00:00,15.3,0.0,30.03,WNW,298,9.0,16.0,51,0.00,,,0.00,weatherlink.com 1.10,2013-01-21 13:00:00,
2013-01-21 08:15:00,15.6,1.0,30.03,WNW,291,11.0,19.0,52,0.00,,,0.00,weatherlink.com 1.10,2013-01-21 13:15:00,
2013-01-21 08:30:00,15.9,0.0,30.03,West,278,16.0,21.0,49,0.00,,,0.00,weatherlink.com 1.10,2013-01-21 13:30:00,
2013-01-21 08:45:00,16.2,-1.0,30.04,West,281,8.0,21.0,48,0.00,,,0.00,weatherlink.com 1.10,2013-01-21 13:45:00,
2013-01-21 09:00:00,16.7,0.0,30.05,WNW,296,9.0,19.0,47,0.00,,,0.00,weatherlink.com 1.10,2013-01-21 14:00:00,
2013-01-21 09:15:00,17.1,-1.0,30.05,WNW,292,11.0,24.0,45,0.00,,,0.00,weatherlink.com 1.10,2013-01-21 14:15:00,
2013-01-21 09:30:00,17.7,-1.0,30.05,West,279,16.0,26.0,43,0.00,,,0.00,weatherlink.com 1.10,2013-01-21 14:30:00,
2013-01-21 09:45:00,17.9,-2.0,30.06,West,272,12.0,22.0,42,0.00,,,0.00,weatherlink.com 1.10,2013-01-21 14:45:00,
2013-01-21 10:00:00,18.6,-1.0,30.06,WSW,248,18.0,22.0,43,0.00,,,0.00,weatherlink.com 1.10,2013-01-21 15:00:00,
2013-01-21 10:16:00,18.7,0.0,30.06,West,271,16.0,23.0,44,0.00,,,0.00,weatherlink.com 1.10,2013-01-21 15:16:00,
2013-01-21 10:31:00,19.1,-1.0,30.05,WNW,285,9.0,20.0,42,0.00,,,0.00,weatherlink.com 1.10,2013-01-21 15:31:00,
2013-01-21 10:46:00,19.6,-1.0,30.05,West,281,11.0,22.0,41,0.00,,,0.00,weatherlink.com 1.10,2013-01-21 15:46:00,
2013-01-21 11:01:00,19.8,-2.0,30.03,West,272,8.0,21.0,39,0.00,,,0.00,weatherlink.com 1.10,2013-01-21 16:01:00,
2013-01-21 11:16:00,20.0,-1.0,30.01,WNW,288,9.0,16.0,39,0.00,,,0.00,weatherlink.com 1.10,2013-01-21 16:16:00,
2013-01-21 11:31:00,20.4,-2.0,30.02,West,264,16.0,26.0,37,0.00,,,0.00,weatherlink.com 1.10,2013-01-21 16:31:00,
2013-01-21 11:46:00,20.7,-2.0,30.02,West,271,8.0,19.0,37,0.00,,,0.00,weatherlink.com 1.10,2013-01-21 16:46:00,
2013-01-21 12:01:00,21.5,-2.0,30.02,SSW,210,9.0,12.0,35,0.00,,,0.00,weatherlink.com 1.10,2013-01-21 17:01:00,
2013-01-21 12:16:00,21.5,-3.0,30.01,West,281,13.0,20.0,34,0.00,,,0.00,weatherlink.com 1.10,2013-01-21 17:16:00,
2013-01-21 12:31:00,21.8,-3.0,30.00,NW,304,7.0,16.0,33,0.00,,,0.00,weatherlink.com 1.10,2013-01-21 17:31:00,
2013-01-21 12:46:00,22.1,-3.0,30.00,WNW,296,7.0,20.0,33,0.00,,,0.00,weatherlink.com 1.10,2013-01-21 17:46:00,
2013-01-21 13:01:00,22.2,-3.0,29.99,West,279,9.0,16.0,33,0.00,,,0.00,weatherlink.com 1.10,2013-01-21 18:01:00,
2013-01-21 13:16:00,22.8,-3.0,29.99,West,271,6.0,15.0,32,0.00,,,0.00,weatherlink.com 1.10,2013-01-21 18:16:00,
2013-01-21 13:31:00,23.4,-2.0,29.98,WSW,242,4.0,9.0,33,0.00,,,0.00,weatherlink.com 1.10,2013-01-21 18:31:00,
2013-01-21 13:47:00,23.2,-3.0,29.99,WNW,291,1.0,8.0,32,0.00,,,0.00,weatherlink.com 1.10,2013-01-21 18:47:00,
2013-01-21 14:02:00,23.0,-2.0,29.99,WSW,237,10.0,13.0,33,0.00,,,0.00,weatherlink.com 1.10,2013-01-21 19:02:00,
2013-01-21 14:17:00,23.2,-2.0,29.99,SW,229,9.0,15.0,33,0.00,,,0.00,weatherlink.com 1.10,2013-01-21 19:17:00,
2013-01-21 14:32:00,23.1,-2.0,29.99,SSW,192,4.0,11.0,33,0.00,,,0.00,weatherlink.com 1.10,2013-01-21 19:32:00,
2013-01-21 14:47:00,23.2,-3.0,29.99,South,175,6.0,10.0,32,0.00,,,0.00,weatherlink.com 1.10,2013-01-21 19:47:00,
2013-01-21 15:02:00,23.2,-2.0,30.00,WSW,254,5.0,9.0,33,0.00,,,0.00,weatherlink.com 1.10,2013-01-21 20:02:00,
2013-01-21 15:17:00,23.4,-1.0,29.99,WSW,240,1.0,8.0,34,0.00,,,0.00,weatherlink.com 1.10,2013-01-21 20:17:00,
2013-01-21 15:32:00,23.3,-2.0,29.99,SW,233,4.0,7.0,33,0.00,,,0.00,weatherlink.com 1.10,2013-01-21 20:32:00,
2013-01-21 15:47:00,23.2,-2.0,29.99,SW,215,2.0,5.0,33,0.00,,,0.00,weatherlink.com 1.10,2013-01-21 20:47:00,
2013-01-21 16:17:00,22.9,-1.0,29.98,SW,223,0.0,0.0,35,0.00,,,0.00,weatherlink.com 1.10,2013-01-21 21:17:00,
2013-01-21 16:32:00,22.7,-1.0,29.98,SW,223,0.0,0.0,35,0.00,,,0.00,weatherlink.com 1.10,2013-01-21 21:32:00,
2013-01-21 16:47:00,22.5,-1.0,29.98,SW,223,0.0,0.0,36,0.00,,,0.00,weatherlink.com 1.10,2013-01-21 21:47:00,
2013-01-21 17:03:00,22.5,1.0,29.98,SW,223,0.0,0.0,39,0.00,,,0.00,weatherlink.com 1.10,2013-01-21 22:03:00,
2013-01-21 17:18:00,22.4,2.0,29.97,ENE,61,1.0,2.0,42,0.00,,,0.00,weatherlink.com 1.10,2013-01-21 22:18:00,
2013-01-21 17:33:00,23.4,3.0,29.97,ENE,64,5.0,6.0,41,0.00,,,0.00,weatherlink.com 1.10,2013-01-21 22:33:00,
2013-01-21 17:48:00,23.4,2.0,29.96,NE,55,2.0,7.0,40,0.00,,,0.00,weatherlink.com 1.10,2013-01-21 22:48:00,
2013-01-21 18:03:00,23.5,2.0,29.96,NE,46,1.0,2.0,40,0.00,,,0.00,weatherlink.com 1.10,2013-01-21 23:03:00,
2013-01-21 18:18:00,23.6,3.0,29.96,NE,44,1.0,2.0,42,0.00,,,0.00,weatherlink.com 1.10,2013-01-21 23:18:00,
2013-01-21 18:33:00,23.7,3.0,29.96,ENE,57,1.0,3.0,41,0.00,,,0.00,weatherlink.com 1.10,2013-01-21 23:33:00,
2013-01-21 18:48:00,23.6,5.0,29.96,NW,304,1.0,1.0,45,0.00,,,0.00,weatherlink.com 1.10,2013-01-21 23:48:00,
2013-01-21 19:03:00,22.9,5.0,29.97,WSW,252,0.0,1.0,47,0.00,,,0.00,weatherlink.com 1.10,2013-01-22 00:03:00,
2013-01-21 19:18:00,23.0,5.0,29.97,WSW,245,1.0,4.0,47,0.00,,,0.00,weatherlink.com 1.10,2013-01-22 00:18:00,
2013-01-21 19:33:00,23.1,6.0,29.97,West,261,0.0,4.0,48,0.00,,,0.00,weatherlink.com 1.10,2013-01-22 00:33:00,
2013-01-21 19:48:00,23.6,10.0,29.97,WNW,286,5.0,6.0,56,0.00,,,0.00,weatherlink.com 1.10,2013-01-22 00:48:00,
2013-01-21 20:03:00,23.3,12.0,29.97,West,259,1.0,7.0,61,0.00,,,0.00,weatherlink.com 1.10,2013-01-22 01:03:00,
2013-01-21 20:18:00,22.9,13.0,29.97,WSW,242,4.0,7.0,65,0.00,,,0.00,weatherlink.com 1.10,2013-01-22 01:18:00,
2013-01-21 20:34:00,22.8,12.0,29.96,West,275,2.0,8.0,63,0.00,,,0.00,weatherlink.com 1.10,2013-01-22 01:34:00,
2013-01-21 20:49:00,22.3,12.0,29.96,West,273,4.0,9.0,66,0.00,,,0.00,weatherlink.com 1.10,2013-01-22 01:49:00,
2013-01-21 21:04:00,21.6,15.0,29.97,WNW,300,4.0,7.0,75,0.00,,,0.00,weatherlink.com 1.10,2013-01-22 02:04:00,
2013-01-21 21:19:00,21.4,15.0,29.97,NW,309,2.0,6.0,76,0.00,,,0.00,weatherlink.com 1.10,2013-01-22 02:19:00,
2013-01-21 21:34:00,21.0,15.0,29.97,WNW,288,6.0,8.0,78,0.00,,,0.00,weatherlink.com 1.10,2013-01-22 02:34:00,
2013-01-21 21:49:00,20.6,15.0,29.97,NW,323,1.0,7.0,80,0.00,,,0.00,weatherlink.com 1.10,2013-01-22 02:49:00,
2013-01-21 22:04:00,20.2,16.0,29.97,NW,311,1.0,5.0,83,0.00,,,0.00,weatherlink.com 1.10,2013-01-22 03:04:00,
2013-01-21 22:19:00,20.1,16.0,29.96,NE,38,1.0,4.0,85,0.00,,,0.00,weatherlink.com 1.10,2013-01-22 03:19:00,
2013-01-21 22:34:00,20.0,17.0,29.94,NE,38,1.0,6.0,87,0.00,,,0.00,weatherlink.com 1.10,2013-01-22 03:34:00,
2013-01-21 22:49:00,20.2,17.0,29.93,ENE,76,1.0,7.0,88,0.00,,,0.00,weatherlink.com 1.10,2013-01-22 03:49:00,
2013-01-21 23:04:00,20.0,17.0,29.90,ENE,57,2.0,8.0,88,0.00,,,0.00,weatherlink.com 1.10,2013-01-22 04:04:00,
2013-01-21 23:19:00,19.9,17.0,29.90,NE,56,7.0,8.0,89,0.00,,,0.00,weatherlink.com 1.10,2013-01-22 04:19:00,
2013-01-21 23:34:00,20.3,18.0,29.88,ENE,58,3.0,7.0,89,0.00,,,0.00,weatherlink.com 1.10,2013-01-22 04:34:00,
2013-01-21 23:49:00,20.4,17.0,29.87,NE,53,6.0,13.0,87,0.00,,,0.00,weatherlink.com 1.10,2013-01-22 04:49:00,